Weather History for Falls City, NE

Change the Weather History Date:

Monday, September 23, 2013

  Actual Average Record
Temperature  
Mean Temperature 62 °F -  
Max Temperature 77 °F 74 °F 92 °F (1988)
Min Temperature 50 °F 47 °F 28 °F (1983)
Degree Days  
Heating Degree Days 2    
Growing Degree Days 12 (Base 50)    
Moisture  
Dew Point 52 °F    
Average Humidity 70    
Maximum Humidity 93    
Minimum Humidity 42    
Precipitation  
Precipitation 0.01 in - - ()
Sea Level Pressure  
Sea Level Pressure 29.81 in    
Wind  
Wind Speed 9 mph (SE)    
Max Wind Speed 22 mph    
Max Gust Speed 28 mph    
Visibility 10 miles    
Events      
Averages and records for this station are not official NWS values.
T = Trace of Precipitation, MM = Missing Value Source: NWS Daily Summary

Daily Weather History Graph

Daily Weather History Graph

Search for Another Location

Airport:

Trip Planner

Search our weather history database for the weather conditions in past years. The results will help you decide how hot, cold, wet, or windy it might be!

Date:

Astronomy

Sep. 23, 2013 Rise Set
Actual Time 7:11 AM CDT 7:17 PM CDT
Civil Twilight 6:44 AM CDT 7:44 PM CDT
Nautical Twilight 6:12 AM CDT 8:15 PM CDT
Astronomical Twilight 5:40 AM CDT 8:48 PM CDT
Moon 9:50 PM CDT (9/23) 11:31 AM CDT (9/23)
Length of Visible Light 13h 00m
Length of Day
12h 06m
Waning Gibbous, 81% of the Moon is Illuminated
Sep 23
Waning Gibbous
Sep 26
Last Quarter
Oct 4
New
Oct 11
First Quarter
Oct 18
Full

Hourly Weather History & Observations

Time (CDT) Temp. Dew Point Humidity Pressure Visibility Wind Dir Wind Speed Gust Speed Precip Events Conditions
12:53 AM 53.1 °F 50.0 °F 89% 29.85 in 10.0 mi ESE 4.6 mph - N/A   Clear
1:53 AM 53.1 °F 50.0 °F 89% 29.85 in 10.0 mi ESE 5.8 mph - N/A   Clear
2:53 AM 51.1 °F 48.9 °F 92% 29.86 in 10.0 mi Calm Calm - N/A   Clear
3:53 AM 51.1 °F 48.9 °F 92% 29.84 in 10.0 mi ESE 4.6 mph - N/A   Clear
4:53 AM 51.1 °F 48.9 °F 92% 29.84 in 10.0 mi SE 4.6 mph - N/A   Clear
5:53 AM 51.1 °F 48.9 °F 92% 29.84 in 10.0 mi SE 5.8 mph - 0.01 in   Clear
6:53 AM 50.0 °F 48.0 °F 93% 29.85 in 10.0 mi SE 5.8 mph - N/A   Clear
7:53 AM 53.1 °F 51.1 °F 93% 29.87 in 10.0 mi SSE 8.1 mph - N/A   Clear
8:53 AM 57.9 °F 54.0 °F 87% 29.87 in 10.0 mi SSE 9.2 mph - N/A   Clear
9:53 AM 64.9 °F 54.0 °F 68% 29.86 in 10.0 mi South 15.0 mph 21.9 mph N/A   Clear
10:53 AM 69.1 °F 55.0 °F 61% 29.86 in 10.0 mi South 13.8 mph 23.0 mph N/A   Clear
11:53 AM 72.0 °F 55.0 °F 55% 29.84 in 10.0 mi South 15.0 mph 27.6 mph N/A   Clear
12:53 PM 73.9 °F 55.0 °F 52% 29.82 in 10.0 mi South 17.3 mph 25.3 mph N/A   Clear
1:53 PM 75.9 °F 54.0 °F 46% 29.80 in 10.0 mi SSE 20.7 mph 27.6 mph N/A   Clear
2:53 PM 75.9 °F 54.0 °F 46% 29.77 in 10.0 mi SSE 19.6 mph 27.6 mph N/A   Clear
3:53 PM 75.9 °F 52.0 °F 43% 29.75 in 10.0 mi SE 17.3 mph 26.5 mph N/A   Clear
4:53 PM 75.9 °F 51.1 °F 42% 29.72 in 10.0 mi SSE 21.9 mph 27.6 mph N/A   Clear
5:53 PM 73.9 °F 52.0 °F 46% 29.74 in 10.0 mi SE 13.8 mph 24.2 mph N/A   Clear
6:53 PM 70.0 °F 53.1 °F 55% 29.75 in 10.0 mi SE 8.1 mph - N/A   Clear
7:53 PM 64.9 °F 53.1 °F 65% 29.75 in 9.0 mi ESE 10.4 mph - N/A   Clear
8:53 PM 64.0 °F 54.0 °F 70% 29.77 in 10.0 mi ESE 10.4 mph - N/A   Clear
9:53 PM 64.0 °F 54.0 °F 70% 29.76 in 10.0 mi ESE 10.4 mph - N/A   Mostly Cloudy
10:53 PM 64.0 °F 54.0 °F 70% 29.75 in 10.0 mi SE 10.4 mph 18.4 mph N/A   Partly Cloudy
11:53 PM 64.0 °F 55.0 °F 73% 29.74 in 10.0 mi SE 9.2 mph - N/A   Overcast